GFSNIL_prec_precacc24_132.txt.gz
Total_Precipitation_Accumulation
0.10 0.09 0.07 0.09 0.16 0.12 0.09 0.07 0.05 0.05 0.11 0.08 0.05 0.02 0.01 0.00 0.00 0.00 0.01 0.01 0.00 0.01
0.06 0.07 0.03 0.05 0.22 0.16 0.21 0.09 0.06 0.05 0.05 0.06 0.05 0.03 0.02 0.00 0.01 0.01 0.01 0.00 0.00 0.00
0.01 0.03 0.12 0.09 0.19 0.20 0.27 0.16 0.15 0.11 0.09 0.08 0.10 0.09 0.09 0.03 0.01 0.02 0.01 0.00 0.02 0.02
0.00 0.00 0.04 0.09 0.22 0.32 0.26 0.14 0.14 0.08 0.16 0.27 0.19 0.16 0.19 0.17 0.13 0.13 0.10 0.05 0.04 0.04
0.12 0.08 0.02 0.06 0.10 0.22 0.34 0.28 0.16 0.23 0.28 0.29 0.28 0.30 0.20 0.32 0.29 0.24 0.20 0.14 0.16 0.15
0.22 0.20 0.26 0.20 0.11 0.15 0.22 0.14 0.14 0.29 0.32 0.32 0.31 0.30 0.48 0.61 0.38 0.31 0.26 0.19 0.19 0.13
0.30 0.20 0.15 0.24 0.22 0.26 0.29 0.29 0.15 0.20 0.20 0.19 0.14 0.18 0.38 0.46 0.51 0.39 0.21 0.51 0.36 0.35
0.34 0.36 0.30 0.31 0.37 0.31 0.28 0.30 0.24 0.22 0.29 0.32 0.19 0.13 0.12 0.14 0.13 0.18 0.24 0.27 0.49 0.48
0.71 0.57 0.36 0.31 0.36 0.34 0.31 0.33 0.26 0.16 0.22 0.31 0.24 0.11 0.11 0.10 0.05 0.05 0.09 0.11 0.17 0.35
0.79 0.56 0.46 0.36 0.47 0.50 0.50 0.49 0.45 0.44 0.46 0.27 0.17 0.22 0.13 0.07 0.02 0.04 0.20 0.28 0.42 0.46
0.93 0.87 0.80 0.62 0.49 0.45 0.44 0.53 0.59 0.42 0.30 0.27 0.19 0.20 0.08 0.04 0.01 0.02 0.19 0.28 0.27 0.32
1.13 0.92 0.89 0.81 0.87 0.81 0.67 0.58 0.44 0.30 0.23 0.17 0.12 0.14 0.06 0.04 0.04 0.06 0.11 0.08 0.07 0.07
2.66 1.58 1.20 1.40 1.50 1.35 1.16 0.86 0.61 0.53 0.37 0.26 0.16 0.17 0.12 0.08 0.02 0.07 0.11 0.08 0.05 0.10
1.98 2.18 1.75 1.95 1.94 1.72 1.55 1.49 1.24 1.09 0.82 0.63 0.47 0.39 0.36 0.19 0.09 0.12 0.19 0.21 0.08 0.02

GFSNIL_prec_precacc24_138.txt.gz
Total_Precipitation_Accumulation
0.10 0.09 0.07 0.10 0.16 0.12 0.09 0.07 0.06 0.06 0.15 0.13 0.09 0.06 0.05 0.03 0.01 0.00 0.01 0.00 0.00 0.00
0.06 0.07 0.03 0.07 0.18 0.07 0.09 0.06 0.06 0.05 0.06 0.07 0.11 0.04 0.02 0.01 0.01 0.01 0.01 0.00 0.00 0.00
0.01 0.02 0.06 0.09 0.16 0.05 0.13 0.12 0.11 0.09 0.11 0.06 0.12 0.12 0.10 0.03 0.01 0.02 0.01 0.00 0.02 0.01
0.00 0.00 0.02 0.08 0.13 0.27 0.25 0.14 0.14 0.08 0.17 0.20 0.23 0.20 0.20 0.16 0.13 0.13 0.10 0.05 0.04 0.04
0.00 0.00 0.00 0.05 0.06 0.18 0.33 0.29 0.16 0.25 0.31 0.34 0.30 0.36 0.22 0.33 0.34 0.27 0.20 0.17 0.16 0.14
0.01 0.00 0.01 0.02 0.03 0.08 0.19 0.14 0.14 0.30 0.32 0.34 0.36 0.31 0.33 0.45 0.33 0.30 0.27 0.24 0.20 0.21
0.07 0.04 0.01 0.03 0.05 0.08 0.07 0.06 0.10 0.13 0.16 0.17 0.21 0.17 0.31 0.35 0.45 0.36 0.22 0.57 0.54 0.51
0.31 0.22 0.20 0.15 0.14 0.13 0.08 0.09 0.11 0.13 0.13 0.18 0.13 0.11 0.09 0.13 0.22 0.33 0.30 0.41 0.63 0.51
0.65 0.49 0.37 0.23 0.24 0.22 0.20 0.25 0.25 0.18 0.19 0.21 0.12 0.11 0.10 0.11 0.10 0.15 0.15 0.15 0.15 0.24
0.70 0.59 0.44 0.42 0.54 0.42 0.45 0.47 0.45 0.48 0.51 0.31 0.18 0.25 0.22 0.16 0.07 0.05 0.08 0.12 0.28 0.36
1.03 1.01 0.95 0.77 0.61 0.55 0.57 0.62 0.70 0.55 0.38 0.32 0.22 0.31 0.21 0.14 0.07 0.03 0.13 0.17 0.15 0.24
1.15 0.96 0.90 0.85 0.91 0.86 0.76 0.68 0.54 0.39 0.32 0.28 0.19 0.30 0.25 0.18 0.13 0.13 0.16 0.11 0.05 0.05
2.53 1.50 1.04 1.13 1.26 1.25 1.25 0.96 0.69 0.62 0.48 0.40 0.28 0.33 0.33 0.26 0.17 0.21 0.21 0.13 0.07 0.12
1.60 2.05 1.87 1.94 1.81 1.55 1.65 1.67 1.38 1.19 0.88 0.70 0.55 0.46 0.42 0.24 0.14 0.14 0.21 0.24 0.10 0.03

GFSNIL_prec_precacc24_144.txt.gz
Total_Precipitation_Accumulation
0.05 0.03 0.02 0.02 0.01 0.02 0.00 0.00 0.01 0.02 0.06 0.09 0.08 0.05 0.06 0.10 0.05 0.02 0.06 0.03 0.01 0.00
0.04 0.04 0.02 0.05 0.05 0.01 0.01 0.00 0.01 0.01 0.01 0.04 0.08 0.05 0.04 0.02 0.05 0.02 0.02 0.00 0.00 0.00
0.01 0.01 0.02 0.09 0.10 0.03 0.10 0.08 0.10 0.06 0.10 0.05 0.09 0.11 0.09 0.01 0.01 0.05 0.02 0.00 0.02 0.02
0.00 0.00 0.00 0.04 0.09 0.13 0.16 0.13 0.15 0.09 0.24 0.23 0.20 0.24 0.24 0.10 0.12 0.15 0.12 0.06 0.05 0.05
0.00 0.00 0.00 0.00 0.03 0.13 0.25 0.19 0.16 0.27 0.37 0.38 0.31 0.50 0.28 0.25 0.31 0.26 0.20 0.21 0.21 0.20
0.01 0.00 0.01 0.02 0.02 0.08 0.18 0.13 0.14 0.30 0.33 0.40 0.44 0.44 0.30 0.35 0.33 0.27 0.27 0.25 0.31 0.33
0.06 0.02 0.00 0.02 0.05 0.08 0.07 0.07 0.10 0.13 0.17 0.18 0.27 0.23 0.28 0.24 0.40 0.38 0.24 0.54 0.65 0.60
0.19 0.12 0.11 0.11 0.12 0.12 0.08 0.09 0.11 0.15 0.11 0.16 0.11 0.10 0.11 0.18 0.29 0.46 0.37 0.47 0.62 0.41
0.38 0.34 0.25 0.17 0.15 0.17 0.18 0.24 0.23 0.17 0.18 0.22 0.12 0.14 0.07 0.14 0.18 0.27 0.29 0.30 0.31 0.19
0.57 0.48 0.32 0.32 0.43 0.32 0.36 0.41 0.40 0.41 0.41 0.27 0.19 0.27 0.26 0.22 0.19 0.20 0.23 0.25 0.34 0.33
0.84 0.78 0.72 0.62 0.53 0.47 0.50 0.56 0.58 0.48 0.35 0.32 0.22 0.31 0.27 0.26 0.21 0.13 0.20 0.23 0.19 0.23
0.96 0.73 0.67 0.64 0.67 0.62 0.63 0.57 0.40 0.30 0.31 0.28 0.20 0.32 0.35 0.30 0.23 0.23 0.23 0.15 0.10 0.09
2.05 1.19 0.73 0.59 0.78 0.73 0.76 0.72 0.50 0.45 0.40 0.39 0.30 0.39 0.43 0.36 0.26 0.31 0.28 0.16 0.10 0.15
1.19 1.41 1.29 1.45 1.32 0.97 0.93 0.98 0.98 0.88 0.76 0.73 0.61 0.55 0.55 0.36 0.25 0.21 0.27 0.28 0.14 0.05

GFSNIL_prec_precacc24_147.txt.gz
Total_Precipitation_Accumulation
0.05 0.02 0.02 0.02 0.00 0.02 0.00 0.00 0.02 0.02 0.06 0.09 0.09 0.08 0.12 0.14 0.05 0.03 0.07 0.03 0.01 0.00
0.04 0.04 0.02 0.03 0.00 0.00 0.00 0.00 0.01 0.01 0.01 0.04 0.08 0.05 0.07 0.02 0.05 0.03 0.04 0.00 0.00 0.00
0.01 0.01 0.02 0.06 0.04 0.02 0.03 0.02 0.05 0.03 0.07 0.04 0.07 0.09 0.08 0.01 0.01 0.05 0.02 0.00 0.02 0.02
0.00 0.00 0.00 0.03 0.04 0.07 0.09 0.05 0.10 0.06 0.17 0.17 0.16 0.20 0.18 0.07 0.12 0.17 0.12 0.07 0.06 0.06
0.00 0.00 0.00 0.00 0.02 0.06 0.20 0.11 0.07 0.21 0.35 0.34 0.27 0.42 0.20 0.19 0.28 0.21 0.18 0.24 0.29 0.25
0.01 0.00 0.01 0.02 0.02 0.07 0.20 0.12 0.09 0.20 0.29 0.37 0.40 0.44 0.28 0.29 0.31 0.23 0.23 0.25 0.36 0.40
0.06 0.02 0.00 0.02 0.05 0.08 0.16 0.13 0.14 0.12 0.12 0.16 0.27 0.23 0.23 0.19 0.41 0.34 0.18 0.45 0.60 0.58
0.22 0.10 0.07 0.09 0.12 0.13 0.12 0.13 0.16 0.20 0.13 0.16 0.09 0.09 0.08 0.14 0.27 0.45 0.33 0.43 0.65 0.46
0.39 0.32 0.23 0.18 0.11 0.13 0.16 0.22 0.23 0.16 0.15 0.19 0.09 0.13 0.07 0.14 0.18 0.28 0.31 0.32 0.35 0.22
0.54 0.49 0.42 0.39 0.41 0.24 0.28 0.35 0.37 0.36 0.36 0.21 0.16 0.25 0.26 0.22 0.19 0.19 0.21 0.25 0.34 0.32
0.80 0.69 0.62 0.54 0.47 0.45 0.55 0.59 0.59 0.48 0.32 0.28 0.18 0.29 0.26 0.25 0.21 0.14 0.20 0.25 0.25 0.20
0.92 0.69 0.60 0.54 0.56 0.55 0.61 0.57 0.42 0.38 0.42 0.34 0.21 0.29 0.35 0.32 0.23 0.24 0.26 0.18 0.14 0.12
2.01 1.13 0.67 0.49 0.47 0.44 0.44 0.41 0.35 0.38 0.37 0.40 0.36 0.46 0.55 0.45 0.28 0.33 0.30 0.18 0.12 0.18
1.11 1.34 1.15 1.15 0.95 0.61 0.48 0.48 0.47 0.50 0.58 0.67 0.65 0.63 0.68 0.53 0.33 0.24 0.26 0.28 0.15 0.07